Location: Eurasberg
(48.3353°N, 11.0839°E)
Time: 14:10:04
(UTC+00:00)

Timation 1 Rocket - Pass Details

Date: 21 April 2026
Orbit: 895 x 908 km, 70.0° (Epoch: 14 May)

Event Time Altitude Azimuth Distance (km) Brightness Sun altitude
Exits shadow 21:57:08 13° 78° (ENE) 2,399 6.4 -27.2°
Drops below altitude 10° 21:58:24 10° 67° (ENE) 2,598 6.7 -27.3°
Sets 22:02:07 0° 44° (NE) 3,546 7.8 -27.5°
